Weather in Kelme

Lithuania     55°37′56″N   22°56′26″E
temp.,
°C
wind,
m/s
gust,
m/s
humid.,
%
clouds,
%
prec.,
mm/h
press.,
hPa
HPBL,
m
28 july, wed
wed2800:00+17sw239583 0.0 101149
03:00+16wsw38976 0.0 1011164
06:00+16wsw24979 0.0 101198
09:00+21wsw357889 0.0 1011414
12:00+24sw456290 0.0 10111035
15:00+27wsw4649100 0.3 10102115
18:00+26w47505 0.0 10091620
21:00+21wsw117016 0.0 100911
29 july, thu
thu2900:00+20sw226899 0.0 100938
03:00+16wsw2596100 0.8 1008108
06:00+15wsw389815 0.0 1008194
09:00+19w47865 0.0 1008525
12:00+24wsw475841 0.0 10081595
15:00+22wsw486386 0.0 1007814
18:00+23w5105730 0.1 10071410
21:00+19w497220 0.2 1007449
30 july, fri
fri3000:00+14sw37947 0.1 1008159
03:00+13ssw410945 0.1 1007225
06:00+13ssw413905 0.1 1007395
09:00+18sw613693 0.1 10061413
12:00+21wsw81247100 0.0 10052081
15:00+22wsw813424 0.0 10052305
18:00+20wsw7144879 0.0 10041975
21:00+17wsw715634 0.0 10031259
31 july, sat
sat3100:00+16wsw6147122 0.0 1003930
03:00+16wsw6138019 0.0 1004779
06:00+15sw4119182 0.0 1004414
09:00+18sw51073100 0.0 1005694
12:00+22sw5753100 0.0 10041151
15:00+25ssw584699 0.0 10032062
18:00+20wsw5108091 0.6 1002753
21:00+17wsw3891100 1.3 1003216
1 august, sun
sun100:00+14sw310920 0.0 1003271
03:00+14ssw5139556 0.1 1004438
06:00+14sw5139295 0.1 1004517
09:00+16sw6118937 0.4 1004672
12:00+21w7105327 0.1 10061777
15:00+20wsw6857100 0.1 10071522
18:00+21wsw5860100 0.1 10071521
21:00+16w2480100 0.1 100771